Year,Month,Day,Hour,Minute,Value (Times are PST for temperature in C)
2013,07,18,00,00,15.80
2013,07,18,00,01,15.80
2013,07,18,00,02,15.70
2013,07,18,00,03,15.70
2013,07,18,00,04,15.70
2013,07,18,00,05,15.70
2013,07,18,00,06,15.70
2013,07,18,00,07,15.70
2013,07,18,00,08,15.70
2013,07,18,00,09,15.70
2013,07,18,00,10,15.70
2013,07,18,00,11,15.60
2013,07,18,00,12,15.60
2013,07,18,00,13,15.60
2013,07,18,00,14,15.60
2013,07,18,00,15,15.60
2013,07,18,00,16,15.50
2013,07,18,00,17,15.50
2013,07,18,00,18,15.50
2013,07,18,00,19,15.40
2013,07,18,00,20,15.40
2013,07,18,00,21,15.40
2013,07,18,00,22,15.40
2013,07,18,00,23,15.30
2013,07,18,00,24,15.30
2013,07,18,00,25,15.30
2013,07,18,00,26,15.30
2013,07,18,00,27,15.20
2013,07,18,00,28,15.20
2013,07,18,00,29,15.20
2013,07,18,00,30,15.20
2013,07,18,00,31,15.10
2013,07,18,00,32,15.10
2013,07,18,00,33,15.10
2013,07,18,00,34,15.00
2013,07,18,00,35,15.00
2013,07,18,00,36,14.90
2013,07,18,00,37,14.90
2013,07,18,00,38,14.90
2013,07,18,00,39,14.80
2013,07,18,00,40,14.80
2013,07,18,00,41,14.80
2013,07,18,00,42,14.80
2013,07,18,00,43,14.80
2013,07,18,00,44,14.70
2013,07,18,00,45,14.70
2013,07,18,00,46,14.70
2013,07,18,00,47,14.70
2013,07,18,00,48,14.70
2013,07,18,00,49,14.70
2013,07,18,00,50,14.60
2013,07,18,00,51,14.60
2013,07,18,00,52,14.60
2013,07,18,00,53,14.60
2013,07,18,00,54,14.50
2013,07,18,00,55,14.50
2013,07,18,00,56,14.50
2013,07,18,00,57,14.40
2013,07,18,00,58,14.40
2013,07,18,00,59,14.40
2013,07,18,01,00,14.40
2013,07,18,01,01,14.40
2013,07,18,01,02,14.40
2013,07,18,01,03,14.30
2013,07,18,01,04,14.30
2013,07,18,01,05,14.30
2013,07,18,01,06,14.30
2013,07,18,01,07,14.30
2013,07,18,01,08,14.30
2013,07,18,01,09,14.30
2013,07,18,01,10,14.20
2013,07,18,01,11,14.20
2013,07,18,01,12,14.20
2013,07,18,01,13,14.20
2013,07,18,01,14,14.20
2013,07,18,01,15,14.20
2013,07,18,01,16,14.20
2013,07,18,01,17,14.20
2013,07,18,01,18,14.20
2013,07,18,01,19,14.20
2013,07,18,01,20,14.20
2013,07,18,01,21,14.20
2013,07,18,01,22,14.10
2013,07,18,01,23,14.10
2013,07,18,01,24,14.10
2013,07,18,01,25,14.10
2013,07,18,01,26,14.10
2013,07,18,01,27,14.10
2013,07,18,01,28,14.10
2013,07,18,01,29,14.10
2013,07,18,01,30,14.00
2013,07,18,01,31,14.00
2013,07,18,01,32,14.00
2013,07,18,01,33,14.00
2013,07,18,01,34,14.00
2013,07,18,01,35,14.00
2013,07,18,01,36,14.00
2013,07,18,01,37,14.00
2013,07,18,01,38,13.90
2013,07,18,01,39,13.90
2013,07,18,01,40,13.90
2013,07,18,01,41,13.90
2013,07,18,01,42,13.90
2013,07,18,01,43,13.90
2013,07,18,01,44,13.90
2013,07,18,01,45,13.80
2013,07,18,01,46,13.80
2013,07,18,01,47,13.80
2013,07,18,01,48,13.80
2013,07,18,01,49,13.70
2013,07,18,01,50,13.70
2013,07,18,01,51,13.70
2013,07,18,01,52,13.70
2013,07,18,01,53,13.70
2013,07,18,01,54,13.70
2013,07,18,01,55,13.70
2013,07,18,01,56,13.60
2013,07,18,01,57,13.60
2013,07,18,01,58,13.60
2013,07,18,01,59,13.60
2013,07,18,02,00,13.60
2013,07,18,02,01,13.60
2013,07,18,02,02,13.60
2013,07,18,02,03,13.60
2013,07,18,02,04,13.60
2013,07,18,02,05,13.60
2013,07,18,02,06,13.50
2013,07,18,02,07,13.50
2013,07,18,02,08,13.50
2013,07,18,02,09,13.50
2013,07,18,02,10,13.50
2013,07,18,02,11,13.40
2013,07,18,02,12,13.40
2013,07,18,02,13,13.40
2013,07,18,02,14,13.40
2013,07,18,02,15,13.40
2013,07,18,02,16,13.30
2013,07,18,02,17,13.30
2013,07,18,02,18,13.30
2013,07,18,02,19,13.30
2013,07,18,02,20,13.30
2013,07,18,02,21,13.30
2013,07,18,02,22,13.30
2013,07,18,02,23,13.30
2013,07,18,02,24,13.30
2013,07,18,02,25,13.30
2013,07,18,02,26,13.30
2013,07,18,02,27,13.30
2013,07,18,02,28,13.20
2013,07,18,02,29,13.20
2013,07,18,02,30,13.20
2013,07,18,02,31,13.20
2013,07,18,02,32,13.20
2013,07,18,02,33,13.20
2013,07,18,02,34,13.20
2013,07,18,02,35,13.10
2013,07,18,02,36,13.10
2013,07,18,02,37,13.10
2013,07,18,02,38,13.10
2013,07,18,02,39,13.10
2013,07,18,02,40,13.10
2013,07,18,02,41,13.10
2013,07,18,02,42,13.10
2013,07,18,02,43,13.10
2013,07,18,02,44,13.10
2013,07,18,02,45,13.10
2013,07,18,02,46,13.10
2013,07,18,02,47,13.10
2013,07,18,02,48,13.10
2013,07,18,02,49,13.10
2013,07,18,02,50,13.10
2013,07,18,02,51,13.10
2013,07,18,02,52,13.10
2013,07,18,02,53,13.00
2013,07,18,02,54,13.00
2013,07,18,02,55,13.00
2013,07,18,02,56,13.00
2013,07,18,02,57,13.00
2013,07,18,02,58,13.00
2013,07,18,02,59,12.90
2013,07,18,03,00,12.90
2013,07,18,03,01,12.90
2013,07,18,03,02,12.90
2013,07,18,03,03,12.90
2013,07,18,03,06,12.90
2013,07,18,03,07,12.90
2013,07,18,03,08,12.80
2013,07,18,03,09,12.80
2013,07,18,03,10,12.80
2013,07,18,03,11,12.80
2013,07,18,03,12,12.80
2013,07,18,03,13,12.80
2013,07,18,03,14,12.80
2013,07,18,03,15,12.80
2013,07,18,03,16,12.80
2013,07,18,03,17,12.80
2013,07,18,03,18,12.80
2013,07,18,03,19,12.80
2013,07,18,03,20,12.80
2013,07,18,03,21,12.80
2013,07,18,03,22,12.80
2013,07,18,03,23,12.80
2013,07,18,03,24,12.80
2013,07,18,03,25,12.80
2013,07,18,03,26,12.80
2013,07,18,03,27,12.80
2013,07,18,03,28,12.80
2013,07,18,03,29,12.80
2013,07,18,03,30,12.80
2013,07,18,03,31,12.70
2013,07,18,03,32,12.70
2013,07,18,03,33,12.70
2013,07,18,03,34,12.70
2013,07,18,03,35,12.70
2013,07,18,03,36,12.70
2013,07,18,03,37,12.70
2013,07,18,03,38,12.70
2013,07,18,03,39,12.70
2013,07,18,03,40,12.70
2013,07,18,03,41,12.70
2013,07,18,03,42,12.60
2013,07,18,03,43,12.60
2013,07,18,03,44,12.60
2013,07,18,03,45,12.60
2013,07,18,03,46,12.60
2013,07,18,03,47,12.60
2013,07,18,03,48,12.60
2013,07,18,03,49,12.60
2013,07,18,03,50,12.50
2013,07,18,03,51,12.60
2013,07,18,03,52,12.60
2013,07,18,03,53,12.60
2013,07,18,03,54,12.60
2013,07,18,03,55,12.60
2013,07,18,03,56,12.60
2013,07,18,03,57,12.60
2013,07,18,03,58,12.60
2013,07,18,03,59,12.50
2013,07,18,04,00,12.50
2013,07,18,04,01,12.50
2013,07,18,04,02,12.50
2013,07,18,04,03,12.50
2013,07,18,04,04,12.50
2013,07,18,04,05,12.50
2013,07,18,04,06,12.50
2013,07,18,04,07,12.50
2013,07,18,04,08,12.40
2013,07,18,04,09,12.40
2013,07,18,04,10,12.40
2013,07,18,04,11,12.40
2013,07,18,04,12,12.40
2013,07,18,04,13,12.40
2013,07,18,04,14,12.40
2013,07,18,04,15,12.40
2013,07,18,04,16,12.40
2013,07,18,04,17,12.30
2013,07,18,04,18,12.30
2013,07,18,04,19,12.30
2013,07,18,04,20,12.30
2013,07,18,04,21,12.30
2013,07,18,04,22,12.30
2013,07,18,04,23,12.30
2013,07,18,04,24,12.30
2013,07,18,04,25,12.30
2013,07,18,04,26,12.30
2013,07,18,04,27,12.30
2013,07,18,04,28,12.30
2013,07,18,04,29,12.30
2013,07,18,04,30,12.30
2013,07,18,04,31,12.30
2013,07,18,04,32,12.30
2013,07,18,04,33,12.30
2013,07,18,04,34,12.30
2013,07,18,04,35,12.30
2013,07,18,04,36,12.30
2013,07,18,04,37,12.30
2013,07,18,04,38,12.30
2013,07,18,04,39,12.30
2013,07,18,04,40,12.20
2013,07,18,04,41,12.20
2013,07,18,04,42,12.20
2013,07,18,04,43,12.20
2013,07,18,04,44,12.20
2013,07,18,04,45,12.20
2013,07,18,04,46,12.20
2013,07,18,04,47,12.20
2013,07,18,04,48,12.20
2013,07,18,04,49,12.20
2013,07,18,04,50,12.20
2013,07,18,04,51,12.20
2013,07,18,04,52,12.20
2013,07,18,04,53,12.20
2013,07,18,04,54,12.20
2013,07,18,04,55,12.20
2013,07,18,04,56,12.20
2013,07,18,04,57,12.20
2013,07,18,04,58,12.20
2013,07,18,04,59,12.20
2013,07,18,05,00,12.20
2013,07,18,05,01,12.20
2013,07,18,05,02,12.20
2013,07,18,05,03,12.20
2013,07,18,05,04,12.20
2013,07,18,05,05,12.20
2013,07,18,05,06,12.20
2013,07,18,05,07,12.10
2013,07,18,05,08,12.10
2013,07,18,05,09,12.10
2013,07,18,05,10,12.10
2013,07,18,05,11,12.10
2013,07,18,05,12,12.10
2013,07,18,05,13,12.10
2013,07,18,05,14,12.10
2013,07,18,05,15,12.10
2013,07,18,05,16,12.10
2013,07,18,05,17,12.10
2013,07,18,05,18,12.10
2013,07,18,05,19,12.10
2013,07,18,05,20,12.10
2013,07,18,05,21,12.10
2013,07,18,05,22,12.10
2013,07,18,05,23,12.10
2013,07,18,05,24,12.10
2013,07,18,05,25,12.10
2013,07,18,05,26,12.10
2013,07,18,05,27,12.10
2013,07,18,05,28,12.10
2013,07,18,05,29,12.10
2013,07,18,05,30,12.10
2013,07,18,05,31,12.10
2013,07,18,05,32,12.10
2013,07,18,05,33,12.10
2013,07,18,05,34,12.10
2013,07,18,05,35,12.10
2013,07,18,05,36,12.10
2013,07,18,05,37,12.10
2013,07,18,05,38,12.10
2013,07,18,05,39,12.10
2013,07,18,05,40,12.10
2013,07,18,05,41,12.10
2013,07,18,05,42,12.10
2013,07,18,05,43,12.10
2013,07,18,05,44,12.10
2013,07,18,05,45,12.10
2013,07,18,05,46,12.10
2013,07,18,05,47,12.10
2013,07,18,05,48,12.10
2013,07,18,05,49,12.10
2013,07,18,05,50,12.10
2013,07,18,05,51,12.10
2013,07,18,05,52,12.10
2013,07,18,05,53,12.10
2013,07,18,05,54,12.10
2013,07,18,05,55,12.10
2013,07,18,05,56,12.10
2013,07,18,05,57,12.00
2013,07,18,05,58,12.00
2013,07,18,05,59,12.00
2013,07,18,06,00,12.00
2013,07,18,06,01,12.00
2013,07,18,06,02,12.00
2013,07,18,06,03,12.00
2013,07,18,06,04,12.00
2013,07,18,06,05,12.00
2013,07,18,06,06,12.00
2013,07,18,06,07,12.00
2013,07,18,06,08,12.00
2013,07,18,06,09,12.00
2013,07,18,06,10,12.00
2013,07,18,06,11,12.00
2013,07,18,06,12,12.00
2013,07,18,06,13,12.00
2013,07,18,06,14,12.00
2013,07,18,06,15,12.10
2013,07,18,06,16,12.10
2013,07,18,06,17,12.10
2013,07,18,06,18,12.10
2013,07,18,06,19,12.10
2013,07,18,06,20,12.20
2013,07,18,06,21,12.20
2013,07,18,06,22,12.20
2013,07,18,06,23,12.20
2013,07,18,06,24,12.20
2013,07,18,06,25,12.20
2013,07,18,06,26,12.20
2013,07,18,06,27,12.30
2013,07,18,06,28,12.30
2013,07,18,06,29,12.30
2013,07,18,06,30,12.30
2013,07,18,06,31,12.30
2013,07,18,06,32,12.30
2013,07,18,06,33,12.30
2013,07,18,06,34,12.40
2013,07,18,06,35,12.40
2013,07,18,06,36,12.40
2013,07,18,06,37,12.40
2013,07,18,06,38,12.40
2013,07,18,06,39,12.50
2013,07,18,06,40,12.50
2013,07,18,06,41,12.50
2013,07,18,06,42,12.60
2013,07,18,06,43,12.60
2013,07,18,06,44,12.60
2013,07,18,06,45,12.60
2013,07,18,06,46,12.60
2013,07,18,06,47,12.60
2013,07,18,06,48,12.70
2013,07,18,06,49,12.70
2013,07,18,06,50,12.70
2013,07,18,06,51,12.70
2013,07,18,06,52,12.80
2013,07,18,06,53,12.80
2013,07,18,06,54,12.80
2013,07,18,06,55,12.80
2013,07,18,06,56,12.90
2013,07,18,06,57,12.90
2013,07,18,06,58,13.00
2013,07,18,06,59,13.00
2013,07,18,07,00,13.00
2013,07,18,07,01,13.10
2013,07,18,07,02,13.20
2013,07,18,07,03,13.20
2013,07,18,07,04,13.30
2013,07,18,07,05,13.30
2013,07,18,07,06,13.40
2013,07,18,07,07,13.50
2013,07,18,07,08,13.50
2013,07,18,07,09,13.60
2013,07,18,07,10,13.60
2013,07,18,07,11,13.70
2013,07,18,07,12,13.70
2013,07,18,07,13,13.80
2013,07,18,07,14,13.80
2013,07,18,07,15,13.90
2013,07,18,07,16,13.90
2013,07,18,07,17,14.00
2013,07,18,07,18,14.10
2013,07,18,07,19,14.10
2013,07,18,07,20,14.20
2013,07,18,07,21,14.30
2013,07,18,07,22,14.40
2013,07,18,07,23,14.50
2013,07,18,07,24,14.60
2013,07,18,07,25,14.60
2013,07,18,07,26,14.70
2013,07,18,07,27,14.80
2013,07,18,07,28,14.90
2013,07,18,07,29,15.00
2013,07,18,07,30,15.10
2013,07,18,07,31,15.20
2013,07,18,07,32,15.30
2013,07,18,07,33,15.40
2013,07,18,07,34,15.50
2013,07,18,07,35,15.60
2013,07,18,07,36,15.70
2013,07,18,07,37,15.80
2013,07,18,07,38,15.90
2013,07,18,07,39,16.00
2013,07,18,07,40,16.00
2013,07,18,07,41,16.10
2013,07,18,07,42,16.20
2013,07,18,07,43,16.30
2013,07,18,07,44,16.40
2013,07,18,07,45,16.50
2013,07,18,07,46,16.60
2013,07,18,07,47,16.70
2013,07,18,07,48,16.80
2013,07,18,07,49,16.90
2013,07,18,07,50,16.90
2013,07,18,07,51,17.00
2013,07,18,07,52,17.10
2013,07,18,07,53,17.20
2013,07,18,07,54,17.20
2013,07,18,07,55,17.30
2013,07,18,07,56,17.30
2013,07,18,07,57,17.30
2013,07,18,07,58,17.30
2013,07,18,07,59,17.30
2013,07,18,08,00,17.30
2013,07,18,08,01,17.30
2013,07,18,08,02,17.40
2013,07,18,08,03,17.40
2013,07,18,08,04,17.40
2013,07,18,08,05,17.40
2013,07,18,08,06,17.40
2013,07,18,08,07,17.50
2013,07,18,08,08,17.50
2013,07,18,08,09,17.50
2013,07,18,08,10,17.50
2013,07,18,08,11,17.40
2013,07,18,08,12,17.40
2013,07,18,08,13,17.40
2013,07,18,08,14,17.40
2013,07,18,08,15,17.40
2013,07,18,08,16,17.30
2013,07,18,08,17,17.30
2013,07,18,08,18,17.30
2013,07,18,08,19,17.20
2013,07,18,08,20,17.10
2013,07,18,08,21,17.10
2013,07,18,08,22,17.00
2013,07,18,08,23,17.00
2013,07,18,08,24,16.90
2013,07,18,08,25,16.90
2013,07,18,08,26,16.80
2013,07,18,08,27,16.70
2013,07,18,08,28,16.70
2013,07,18,08,29,16.70
2013,07,18,08,30,16.70
2013,07,18,08,31,16.70
2013,07,18,08,32,16.70
2013,07,18,08,33,16.70
2013,07,18,08,34,16.70
2013,07,18,08,35,16.80
2013,07,18,08,36,16.80
2013,07,18,08,37,16.80
2013,07,18,08,38,16.80
2013,07,18,08,39,16.90
2013,07,18,08,40,16.90
2013,07,18,08,41,16.90
2013,07,18,08,42,17.00
2013,07,18,08,43,17.10
2013,07,18,08,44,17.10
2013,07,18,08,45,17.20
2013,07,18,08,46,17.20
2013,07,18,08,47,17.30
2013,07,18,08,48,17.30
2013,07,18,08,49,17.40
2013,07,18,08,50,17.50
2013,07,18,08,51,17.60
2013,07,18,08,52,17.60
2013,07,18,08,53,17.70
2013,07,18,08,54,17.80
2013,07,18,08,55,17.90
2013,07,18,08,56,17.90
2013,07,18,08,57,18.00
2013,07,18,08,58,18.10
2013,07,18,08,59,18.20
2013,07,18,09,00,18.30
2013,07,18,09,01,18.40
2013,07,18,09,02,18.50
2013,07,18,09,03,18.70
2013,07,18,09,04,18.70
2013,07,18,09,05,18.80
2013,07,18,09,06,18.90
2013,07,18,09,07,18.90
2013,07,18,09,08,18.90
2013,07,18,09,09,18.90
2013,07,18,09,10,18.90
2013,07,18,09,11,19.00
2013,07,18,09,12,19.00
2013,07,18,09,13,19.10
2013,07,18,09,14,19.10
2013,07,18,09,15,19.10
2013,07,18,09,16,19.20
2013,07,18,09,17,19.20
2013,07,18,09,18,19.30
2013,07,18,09,19,19.30
2013,07,18,09,20,19.30
2013,07,18,09,21,19.30
2013,07,18,09,22,19.30
2013,07,18,09,23,19.30
2013,07,18,09,24,19.30
2013,07,18,09,25,19.30
2013,07,18,09,26,19.30
2013,07,18,09,27,19.30
2013,07,18,09,28,19.30
2013,07,18,09,29,19.30
2013,07,18,09,30,19.20
2013,07,18,09,31,19.20
2013,07,18,09,32,19.20
2013,07,18,09,33,19.20
2013,07,18,09,34,19.20
2013,07,18,09,35,19.20
2013,07,18,09,36,19.20
2013,07,18,09,37,19.30
2013,07,18,09,38,19.30
2013,07,18,09,39,19.30
2013,07,18,09,40,19.40
2013,07,18,09,41,19.40
2013,07,18,09,42,19.40
2013,07,18,09,43,19.40
2013,07,18,09,44,19.40
2013,07,18,09,45,19.30
2013,07,18,09,46,19.20
2013,07,18,09,47,19.10
2013,07,18,09,48,19.00
2013,07,18,09,49,19.00
2013,07,18,09,50,18.90
2013,07,18,09,51,18.90
2013,07,18,09,52,18.90
2013,07,18,09,53,18.80
2013,07,18,09,54,18.80
2013,07,18,09,55,18.80
2013,07,18,09,56,18.80
2013,07,18,09,57,18.70
2013,07,18,09,58,18.70
2013,07,18,09,59,18.70
2013,07,18,10,00,18.70
2013,07,18,10,01,18.80
2013,07,18,10,02,18.80
2013,07,18,10,03,18.80
2013,07,18,10,04,18.80
2013,07,18,10,05,18.90
2013,07,18,10,06,18.90
2013,07,18,10,07,18.80
2013,07,18,10,08,18.80
2013,07,18,10,09,18.80
2013,07,18,10,10,18.80
2013,07,18,10,11,18.80
2013,07,18,10,12,18.80
2013,07,18,10,13,18.80
2013,07,18,10,14,18.90
2013,07,18,10,15,18.90
2013,07,18,10,16,19.00
2013,07,18,10,17,19.10
2013,07,18,10,18,19.20
2013,07,18,10,19,19.20
2013,07,18,10,20,19.20
2013,07,18,10,21,19.30
2013,07,18,10,22,19.30
2013,07,18,10,23,19.40
2013,07,18,10,24,19.50
2013,07,18,10,25,19.50
2013,07,18,10,26,19.60
2013,07,18,10,27,19.60
2013,07,18,10,28,19.70
2013,07,18,10,29,19.70
2013,07,18,10,30,19.70
2013,07,18,10,31,19.80
2013,07,18,10,32,19.80
2013,07,18,10,33,19.90
2013,07,18,10,34,19.90
2013,07,18,10,35,20.00
2013,07,18,10,36,20.00
2013,07,18,10,37,20.00
2013,07,18,10,38,20.00
2013,07,18,10,39,20.00
2013,07,18,10,40,19.90
2013,07,18,10,41,19.90
2013,07,18,10,42,19.90
2013,07,18,10,43,19.90
2013,07,18,10,44,19.90
2013,07,18,10,45,19.90
2013,07,18,10,46,19.90
2013,07,18,10,47,19.90
2013,07,18,10,48,19.90
2013,07,18,10,49,19.90
2013,07,18,10,50,19.90
2013,07,18,10,51,19.90
2013,07,18,10,52,19.90
2013,07,18,10,53,19.90
2013,07,18,10,54,19.90
2013,07,18,10,55,19.90
2013,07,18,10,56,20.00
2013,07,18,10,57,20.00
2013,07,18,10,58,20.10
2013,07,18,10,59,20.10
2013,07,18,11,00,20.10
2013,07,18,11,01,20.10
2013,07,18,11,02,20.10
2013,07,18,11,03,20.10
2013,07,18,11,04,20.10
2013,07,18,11,05,20.10
2013,07,18,11,06,20.10
2013,07,18,11,07,20.20
2013,07,18,11,08,20.20
2013,07,18,11,09,20.20
2013,07,18,11,10,20.20
2013,07,18,11,11,20.30
2013,07,18,11,12,20.30
2013,07,18,11,13,20.40
2013,07,18,11,14,20.40
2013,07,18,11,15,20.40
2013,07,18,11,16,20.40
2013,07,18,11,17,20.40
2013,07,18,11,18,20.50
2013,07,18,11,19,20.50
2013,07,18,11,20,20.50
2013,07,18,11,21,20.50
2013,07,18,11,22,20.60
2013,07,18,11,23,20.60
2013,07,18,11,24,20.70
2013,07,18,11,25,20.80
2013,07,18,11,26,20.90
2013,07,18,11,27,20.90
2013,07,18,11,28,20.90
2013,07,18,11,29,20.90
2013,07,18,11,30,20.90
2013,07,18,11,31,20.80
2013,07,18,11,32,20.80
2013,07,18,11,33,20.90
2013,07,18,11,34,20.90
2013,07,18,11,35,20.90
2013,07,18,11,36,20.90
2013,07,18,11,37,20.80
2013,07,18,11,38,20.80
2013,07,18,11,39,20.80
2013,07,18,11,40,20.80
2013,07,18,11,41,20.80
2013,07,18,11,42,20.80
2013,07,18,11,43,20.80
2013,07,18,11,44,20.80
2013,07,18,11,45,20.90
2013,07,18,11,46,20.90
2013,07,18,11,47,20.90
2013,07,18,11,48,20.90
2013,07,18,11,49,20.90
2013,07,18,11,50,21.00
2013,07,18,11,51,21.00
2013,07,18,11,52,21.10
2013,07,18,11,53,21.20
2013,07,18,11,54,21.20
2013,07,18,11,55,21.30
2013,07,18,11,56,21.30
2013,07,18,11,57,21.30
2013,07,18,11,58,21.40
2013,07,18,11,59,21.30
2013,07,18,12,00,21.30
2013,07,18,12,01,21.30
2013,07,18,12,02,21.20
2013,07,18,12,03,21.20
2013,07,18,12,04,21.20
2013,07,18,12,05,21.20
2013,07,18,12,06,21.20
2013,07,18,12,07,21.20
2013,07,18,12,08,21.10
2013,07,18,12,09,21.00
2013,07,18,12,10,20.90
2013,07,18,12,11,20.80
2013,07,18,12,12,20.70
2013,07,18,12,13,20.70
2013,07,18,12,14,20.70
2013,07,18,12,15,20.70
2013,07,18,12,16,20.80
2013,07,18,12,17,20.80
2013,07,18,12,18,20.80
2013,07,18,12,19,20.80
2013,07,18,12,20,20.70
2013,07,18,12,21,20.70
2013,07,18,12,22,20.70
2013,07,18,12,23,20.70
2013,07,18,12,24,20.70
2013,07,18,12,25,20.80
2013,07,18,12,26,20.80
2013,07,18,12,27,20.90
2013,07,18,12,28,21.00
2013,07,18,12,29,21.00
2013,07,18,12,30,21.00
2013,07,18,12,31,21.00
2013,07,18,12,32,21.00
2013,07,18,12,33,21.00
2013,07,18,12,34,21.10
2013,07,18,12,35,21.20
2013,07,18,12,36,21.30
2013,07,18,12,37,21.30
2013,07,18,12,38,21.30
2013,07,18,12,39,21.30
2013,07,18,12,40,21.30
2013,07,18,12,41,21.30
2013,07,18,12,42,21.30
2013,07,18,12,43,21.30
2013,07,18,12,44,21.30
2013,07,18,12,45,21.30
2013,07,18,12,46,21.30
2013,07,18,12,47,21.20
2013,07,18,12,48,21.20
2013,07,18,12,49,21.20
2013,07,18,12,50,21.20
2013,07,18,12,51,21.20
2013,07,18,12,52,21.30
2013,07,18,12,53,21.30
2013,07,18,12,54,21.30
2013,07,18,12,55,21.40
2013,07,18,12,56,21.40
2013,07,18,12,57,21.40
2013,07,18,12,58,21.40
2013,07,18,12,59,21.40
2013,07,18,13,00,21.40
2013,07,18,13,01,21.40
2013,07,18,13,02,21.40
2013,07,18,13,03,21.40
2013,07,18,13,04,21.40
2013,07,18,13,05,21.40
2013,07,18,13,06,21.40
2013,07,18,13,07,21.30
2013,07,18,13,08,21.30
2013,07,18,13,09,21.20
2013,07,18,13,10,21.20
2013,07,18,13,11,21.20
2013,07,18,13,12,21.20
2013,07,18,13,13,21.20
2013,07,18,13,14,21.30
2013,07,18,13,15,21.30
2013,07,18,13,16,21.40
2013,07,18,13,17,21.40
2013,07,18,13,18,21.50
2013,07,18,13,19,21.50
2013,07,18,13,20,21.60
2013,07,18,13,21,21.60
2013,07,18,13,22,21.70
2013,07,18,13,23,21.70
2013,07,18,13,24,21.70
2013,07,18,13,25,21.80
2013,07,18,13,26,21.80
2013,07,18,13,27,21.80
2013,07,18,13,28,21.80
2013,07,18,13,29,21.80
2013,07,18,13,30,21.80
2013,07,18,13,31,21.70
2013,07,18,13,32,21.70
2013,07,18,13,33,21.70
2013,07,18,13,34,21.70
2013,07,18,13,35,21.70
2013,07,18,13,36,21.70
2013,07,18,13,37,21.70
2013,07,18,13,38,21.70
2013,07,18,13,39,21.70
2013,07,18,13,40,21.70
2013,07,18,13,41,21.80
2013,07,18,13,42,21.80
2013,07,18,13,43,21.80
2013,07,18,13,44,21.90
2013,07,18,13,45,21.90
2013,07,18,13,46,22.00
2013,07,18,13,47,22.00
2013,07,18,13,48,22.10
2013,07,18,13,49,22.10
2013,07,18,13,50,22.10
2013,07,18,13,51,22.10
2013,07,18,13,52,22.00
2013,07,18,13,53,22.00
2013,07,18,13,54,21.90
2013,07,18,13,55,21.80
2013,07,18,13,56,21.80
2013,07,18,13,57,21.70
2013,07,18,13,58,21.70
2013,07,18,13,59,21.70
2013,07,18,14,00,21.70
2013,07,18,14,01,21.80
2013,07,18,14,02,21.80
2013,07,18,14,03,21.90
2013,07,18,14,04,22.00
2013,07,18,14,05,22.10
2013,07,18,14,06,22.20
2013,07,18,14,07,22.30
2013,07,18,14,08,22.30
2013,07,18,14,09,22.40
2013,07,18,14,10,22.50
2013,07,18,14,11,22.50
2013,07,18,14,12,22.50
2013,07,18,14,13,22.60
2013,07,18,14,14,22.70
2013,07,18,14,15,22.70
2013,07,18,14,16,22.60
2013,07,18,14,17,22.50
2013,07,18,14,18,22.40
2013,07,18,14,19,22.40
2013,07,18,14,20,22.30
2013,07,18,14,21,22.30
2013,07,18,14,22,22.20
2013,07,18,14,23,22.10
2013,07,18,14,24,22.10
2013,07,18,14,25,22.00
2013,07,18,14,26,22.00
2013,07,18,14,27,22.00
2013,07,18,14,28,22.00
2013,07,18,14,29,22.10
2013,07,18,14,30,22.10
2013,07,18,14,31,22.10
2013,07,18,14,32,22.00
2013,07,18,14,33,22.00
2013,07,18,14,34,22.00
2013,07,18,14,35,22.00
2013,07,18,14,36,22.00
2013,07,18,14,37,22.00
2013,07,18,14,38,22.00
2013,07,18,14,39,22.10
2013,07,18,14,40,22.20
2013,07,18,14,41,22.20
2013,07,18,14,42,22.20
2013,07,18,14,43,22.30
2013,07,18,14,44,22.30
2013,07,18,14,45,22.30
2013,07,18,14,46,22.20
2013,07,18,14,47,22.20
2013,07,18,14,48,22.20
2013,07,18,14,49,22.20
2013,07,18,14,50,22.10
2013,07,18,14,51,22.10
2013,07,18,14,52,22.10
2013,07,18,14,53,22.10
2013,07,18,14,54,22.10
2013,07,18,14,55,22.10
2013,07,18,14,56,22.10
2013,07,18,14,57,22.10
2013,07,18,14,58,22.00
2013,07,18,14,59,22.00
2013,07,18,15,00,22.00
2013,07,18,15,01,21.90
2013,07,18,15,02,21.90
2013,07,18,15,03,21.90
2013,07,18,15,04,22.00
2013,07,18,15,05,22.00
2013,07,18,15,06,22.00
2013,07,18,15,07,22.10
2013,07,18,15,08,22.10
2013,07,18,15,09,22.10
2013,07,18,15,10,22.20
2013,07,18,15,11,22.20
2013,07,18,15,12,22.20
2013,07,18,15,13,22.10
2013,07,18,15,14,22.10
2013,07,18,15,15,22.10
2013,07,18,15,16,22.00
2013,07,18,15,17,22.00
2013,07,18,15,18,22.00
2013,07,18,15,19,22.00
2013,07,18,15,20,21.90
2013,07,18,15,21,22.00
2013,07,18,15,22,22.10
2013,07,18,15,23,22.10
2013,07,18,15,24,22.20
2013,07,18,15,25,22.30
2013,07,18,15,26,22.30
2013,07,18,15,27,22.30
2013,07,18,15,28,22.30
2013,07,18,15,29,22.30
2013,07,18,15,30,22.30
2013,07,18,15,31,22.30
2013,07,18,15,32,22.30
2013,07,18,15,33,22.30
2013,07,18,15,34,22.30
2013,07,18,15,35,22.30
2013,07,18,15,36,22.30
2013,07,18,15,37,22.20
2013,07,18,15,38,22.20
2013,07,18,15,39,22.20
2013,07,18,15,40,22.20
2013,07,18,15,41,22.20
2013,07,18,15,42,22.20
2013,07,18,15,43,22.20
2013,07,18,15,44,22.20
2013,07,18,15,45,22.30
2013,07,18,15,46,22.40
2013,07,18,15,47,22.40
2013,07,18,15,48,22.50
2013,07,18,15,49,22.50
2013,07,18,15,50,22.60
2013,07,18,15,51,22.70
2013,07,18,15,52,22.70
2013,07,18,15,53,22.70
2013,07,18,15,54,22.70
2013,07,18,15,55,22.70
2013,07,18,15,56,22.80
2013,07,18,15,57,22.80
2013,07,18,15,58,22.90
2013,07,18,15,59,22.90
2013,07,18,16,00,22.80
2013,07,18,16,01,22.80
2013,07,18,16,02,22.80
2013,07,18,16,03,22.70
2013,07,18,16,04,22.70
2013,07,18,16,05,22.60
2013,07,18,16,06,22.50
2013,07,18,16,07,22.40
2013,07,18,16,08,22.30
2013,07,18,16,09,22.30
2013,07,18,16,10,22.20
2013,07,18,16,11,22.20
2013,07,18,16,12,22.10
2013,07,18,16,13,22.10
2013,07,18,16,14,22.10
2013,07,18,16,15,22.10
2013,07,18,16,16,22.10
2013,07,18,16,17,22.20
2013,07,18,16,18,22.20
2013,07,18,16,19,22.30
2013,07,18,16,20,22.40
2013,07,18,16,21,22.40
2013,07,18,16,22,22.50
2013,07,18,16,23,22.60
2013,07,18,16,24,22.70
2013,07,18,16,25,22.70
2013,07,18,16,26,22.80
2013,07,18,16,27,22.90
2013,07,18,16,28,22.90
2013,07,18,16,29,23.00
2013,07,18,16,30,23.10
2013,07,18,16,31,23.10
2013,07,18,16,32,23.20
2013,07,18,16,33,23.20
2013,07,18,16,34,23.20
2013,07,18,16,35,23.20
2013,07,18,16,36,23.20
2013,07,18,16,37,23.20
2013,07,18,16,38,23.20
2013,07,18,16,39,23.20
2013,07,18,16,40,23.20
2013,07,18,16,41,23.20
2013,07,18,16,42,23.20
2013,07,18,16,43,23.20
2013,07,18,16,44,23.20
2013,07,18,16,45,23.20
2013,07,18,16,46,23.20
2013,07,18,16,47,23.20
2013,07,18,16,48,23.20
2013,07,18,16,49,23.20
2013,07,18,16,50,23.10
2013,07,18,16,51,23.10
2013,07,18,16,52,23.10
2013,07,18,16,53,23.10
2013,07,18,16,54,23.20
2013,07,18,16,55,23.20
2013,07,18,16,56,23.20
2013,07,18,16,57,23.20
2013,07,18,16,58,23.20
2013,07,18,16,59,23.10
2013,07,18,17,00,22.90
2013,07,18,17,01,22.80
2013,07,18,17,02,22.70
2013,07,18,17,03,22.50
2013,07,18,17,04,22.40
2013,07,18,17,05,22.30
2013,07,18,17,06,22.30
2013,07,18,17,07,22.20
2013,07,18,17,08,22.10
2013,07,18,17,09,22.00
2013,07,18,17,10,21.90
2013,07,18,17,11,21.90
2013,07,18,17,12,21.90
2013,07,18,17,13,21.90
2013,07,18,17,14,21.90
2013,07,18,17,15,21.80
2013,07,18,17,16,21.80
2013,07,18,17,17,21.70
2013,07,18,17,18,21.60
2013,07,18,17,19,21.50
2013,07,18,17,20,21.40
2013,07,18,17,21,21.20